Weather History for Sterling, IL

Change the Weather History Date:

Friday, October 5, 2012

  Actual Average Record
Temperature  
Mean Temperature 42 °F -  
Max Temperature 50 °F 65 °F 89 °F (1997)
Min Temperature 33 °F 42 °F 24 °F (2004)
Degree Days  
Heating Degree Days 24    
Moisture  
Dew Point 28 °F    
Average Humidity 56    
Maximum Humidity 75    
Minimum Humidity 34    
Precipitation  
Precipitation 0.00 in - - ()
Sea Level Pressure  
Sea Level Pressure 30.16 in    
Wind  
Wind Speed 10 mph (West)    
Max Wind Speed 20 mph    
Max Gust Speed 25 mph    
Visibility 10 miles    
Events      
Averages and records for this station are not official NWS values.
T = Trace of Precipitation, MM = Missing Value Source: NWS Daily Summary

Daily Weather History Graph

Daily Weather History Graph

Search for Another Location

Airport:

Trip Planner

Search our weather history database for the weather conditions in past years. The results will help you decide how hot, cold, wet, or windy it might be!

Date:

Astronomy

Oct. 05, 2012 Rise Set
Actual Time 7:00 AM CDT 6:32 PM CDT
Civil Twilight 6:32 AM CDT 7:00 PM CDT
Nautical Twilight 6:00 AM CDT 7:32 PM CDT
Astronomical Twilight 5:27 AM CDT 8:05 PM CDT
Moon 9:52 PM CDT (10/5) 12:12 PM CDT (10/5)
Length of Visible Light 12h 27m
Length of Day
11h 32m
Waning Gibbous, 74% of the Moon is Illuminated
Oct 5
Waning Gibbous
Oct 8
Last Quarter
Oct 15
New
Oct 21
First Quarter
Oct 29
Full

Hourly Weather History & Observations

Time (CDT) Temp. Windchill Dew Point Humidity Pressure Visibility Wind Dir Wind Speed Gust Speed Precip Events Conditions
12:15 AM 46.4 °F 42.4 °F 33.8 °F 62% 30.14 in 10.0 mi WNW 8.1 mph - N/A   Clear
12:35 AM 46.4 °F 42.4 °F 33.8 °F 62% 30.15 in 10.0 mi WNW 8.1 mph - N/A   Clear
12:55 AM 46.4 °F 41.1 °F 32.0 °F 57% 30.17 in 10.0 mi West 11.5 mph - N/A   Clear
1:15 AM 44.6 °F 40.2 °F 32.0 °F 61% 30.18 in 10.0 mi WNW 8.1 mph - N/A   Clear
1:35 AM 44.6 °F 38.8 °F 33.8 °F 66% 30.21 in 10.0 mi West 11.5 mph - N/A   Clear
1:55 AM 44.6 °F 39.7 °F 32.0 °F 61% 30.20 in 10.0 mi WNW 9.2 mph - N/A   Clear
2:15 AM 44.6 °F 40.2 °F 33.8 °F 66% 30.19 in 10.0 mi NW 8.1 mph - N/A   Clear
2:35 AM 44.6 °F 40.7 °F 33.8 °F 66% 30.18 in 10.0 mi NW 6.9 mph - N/A   Clear
2:55 AM 44.6 °F 39.7 °F 33.8 °F 66% 30.18 in 10.0 mi WNW 9.2 mph - N/A   Clear
3:15 AM 44.6 °F 39.7 °F 32.0 °F 61% 30.19 in 10.0 mi NW 9.2 mph - N/A   Clear
3:35 AM 44.6 °F 39.2 °F 32.0 °F 61% 30.19 in 10.0 mi WNW 10.4 mph - N/A   Clear
3:55 AM 44.6 °F 40.2 °F 30.2 °F 57% 30.19 in 10.0 mi WNW 8.1 mph - N/A   Clear
4:15 AM 44.6 °F 40.7 °F 30.2 °F 57% 30.18 in 10.0 mi NW 6.9 mph - N/A   Clear
4:35 AM 42.8 °F 37.0 °F 30.2 °F 61% 30.18 in 10.0 mi WNW 10.4 mph - N/A   Clear
4:55 AM 41.0 °F 37.1 °F 30.2 °F 65% 30.19 in 10.0 mi West 5.8 mph - N/A   Clear
5:15 AM 39.2 °F 37.0 °F 30.2 °F 70% 30.19 in 10.0 mi West 3.5 mph - N/A   Clear
5:35 AM 37.4 °F 32.8 °F 30.2 °F 75% 30.19 in 10.0 mi West 5.8 mph - N/A   Clear
5:55 AM 39.2 °F 35.9 °F 30.2 °F 70% 30.19 in 10.0 mi WSW 4.6 mph - N/A   Clear
6:15 AM 39.2 °F 35.9 °F 30.2 °F 70% 30.20 in 10.0 mi SW 4.6 mph - N/A   Clear
6:35 AM 39.2 °F 34.2 °F 30.2 °F 70% 30.20 in 10.0 mi SW 6.9 mph - N/A   Clear
6:55 AM 37.4 °F 32.1 °F 30.2 °F 75% 30.21 in 10.0 mi WSW 6.9 mph - N/A   Clear
7:15 AM 35.6 °F 29.2 °F 28.4 °F 75% 30.21 in 10.0 mi West 8.1 mph - N/A   Clear
7:35 AM 37.4 °F 31.4 °F 30.2 °F 75% 30.20 in 10.0 mi West 8.1 mph - N/A   Clear
7:55 AM 39.2 °F 34.2 °F 32.0 °F 75% 30.20 in 10.0 mi West 6.9 mph - N/A   Clear
8:15 AM 41.0 °F 36.4 °F 30.2 °F 65% 30.19 in 10.0 mi West 6.9 mph - N/A   Partly Cloudy
8:35 AM 42.8 °F 36.6 °F 32.0 °F 66% 30.19 in 10.0 mi WNW 11.5 mph - N/A   Mostly Cloudy
8:55 AM 42.8 °F 37.5 °F 32.0 °F 66% 30.19 in 10.0 mi West 9.2 mph - N/A   Scattered Clouds
9:15 AM 44.6 °F 38.4 °F 32.0 °F 61% 30.20 in 10.0 mi WNW 12.7 mph - N/A   Partly Cloudy
9:35 AM 44.6 °F 38.8 °F 32.0 °F 61% 30.20 in 10.0 mi WNW 11.5 mph - N/A   Mostly Cloudy
9:55 AM 44.6 °F 38.8 °F 30.2 °F 57% 30.20 in 10.0 mi NW 11.5 mph 16.1 mph N/A   Scattered Clouds
10:15 AM 46.4 °F 40.4 °F 30.2 °F 53% 30.20 in 10.0 mi NW 13.8 mph 18.4 mph N/A   Scattered Clouds
10:35 AM 44.6 °F 38.1 °F 30.2 °F 57% 30.20 in 10.0 mi West 13.8 mph - N/A   Scattered Clouds
10:55 AM 46.4 °F 41.1 °F 30.2 °F 53% 30.20 in 10.0 mi WNW 11.5 mph - N/A   Partly Cloudy
11:35 AM 46.4 °F 40.1 °F 30.2 °F 53% 30.16 in 10.0 mi WNW 15.0 mph - N/A   Mostly Cloudy
11:55 AM 46.4 °F 39.8 °F 30.2 °F 53% 30.16 in 10.0 mi WNW 16.1 mph 19.6 mph N/A   Mostly Cloudy
12:15 PM 48.2 °F - 30.2 °F 50% 30.16 in 10.0 mi WNW 13.8 mph - N/A   Overcast
12:35 PM 48.2 °F - 30.2 °F 50% 30.16 in 10.0 mi WNW 13.8 mph - N/A   Overcast
12:55 PM 48.2 °F - 30.2 °F 50% 30.15 in 10.0 mi West 13.8 mph - N/A   Overcast
1:35 PM 50.0 °F - 28.4 °F 43% 30.13 in 10.0 mi West 17.3 mph - N/A   Overcast
1:55 PM 48.2 °F - 28.4 °F 46% 30.13 in 10.0 mi West 13.8 mph - N/A   Overcast
2:15 PM 50.0 °F - 28.4 °F 43% 30.14 in 10.0 mi West 12.7 mph - N/A   Overcast
2:35 PM 48.2 °F - 26.6 °F 43% 30.14 in 10.0 mi West 15.0 mph - N/A   Overcast
2:55 PM 48.2 °F - 24.8 °F 40% 30.14 in 10.0 mi West 12.7 mph - N/A   Overcast
3:15 PM 48.2 °F - 24.8 °F 40% 30.14 in 10.0 mi WNW 15.0 mph 20.7 mph N/A   Overcast
3:35 PM 48.2 °F - 23.0 °F 37% 30.14 in 10.0 mi West 17.3 mph - N/A   Overcast
3:55 PM 48.2 °F - 21.2 °F 34% 30.12 in 10.0 mi WNW 12.7 mph - N/A   Overcast
4:15 PM 48.2 °F - 23.0 °F 37% 30.12 in 10.0 mi West 16.1 mph - N/A   Overcast
4:35 PM 48.2 °F - 23.0 °F 37% 30.13 in 10.0 mi West 18.4 mph - N/A   Overcast
4:55 PM 46.4 °F 39.8 °F 21.2 °F 37% 30.13 in 10.0 mi West 16.1 mph 24.2 mph N/A   Overcast
5:15 PM 46.4 °F 40.4 °F 21.2 °F 37% 30.13 in 10.0 mi West 13.8 mph 21.9 mph N/A   Overcast
5:35 PM 46.4 °F 39.8 °F 21.2 °F 37% 30.13 in 10.0 mi WNW 16.1 mph - N/A   Overcast
5:55 PM 46.4 °F 39.0 °F 21.2 °F 37% 30.13 in 10.0 mi WNW 19.6 mph - N/A   Overcast
6:15 PM 44.6 °F 37.8 °F 21.2 °F 39% 30.13 in 10.0 mi WNW 15.0 mph 25.3 mph N/A   Overcast
6:35 PM 44.6 °F 38.1 °F 23.0 °F 43% 30.13 in 10.0 mi WNW 13.8 mph 18.4 mph N/A   Overcast
6:55 PM 44.6 °F 38.8 °F 23.0 °F 43% 30.12 in 10.0 mi West 11.5 mph - N/A   Overcast
7:15 PM 42.8 °F 37.0 °F 23.0 °F 46% 30.12 in 10.0 mi West 10.4 mph - N/A   Mostly Cloudy
7:35 PM 42.8 °F 37.5 °F 23.0 °F 46% 30.12 in 10.0 mi West 9.2 mph - N/A   Scattered Clouds
7:55 PM 39.2 °F 33.0 °F 23.0 °F 52% 30.12 in 10.0 mi West 9.2 mph - N/A   Clear
8:15 PM 37.4 °F 30.8 °F 23.0 °F 56% 30.12 in 10.0 mi West 9.2 mph - N/A   Clear
8:35 PM 39.2 °F 33.0 °F 23.0 °F 52% 30.13 in 10.0 mi WSW 9.2 mph - N/A   Clear
8:55 PM 39.2 °F 33.0 °F 23.0 °F 52% 30.13 in 10.0 mi WSW 9.2 mph - N/A   Clear
9:15 PM 37.4 °F 31.4 °F 23.0 °F 56% 30.13 in 10.0 mi WSW 8.1 mph - N/A   Clear
9:35 PM 35.6 °F 29.2 °F 23.0 °F 60% 30.13 in 10.0 mi WSW 8.1 mph - N/A   Clear
9:55 PM 35.6 °F 29.9 °F 24.8 °F 65% 30.13 in 10.0 mi WSW 6.9 mph - N/A   Clear
10:35 PM 35.6 °F 28.0 °F 23.0 °F 60% 30.13 in 10.0 mi West 10.4 mph - N/A   Clear
10:55 PM 35.6 °F 29.2 °F 23.0 °F 60% 30.13 in 10.0 mi West 8.1 mph - N/A   Clear
11:15 PM 33.8 °F 27.0 °F 23.0 °F 65% 30.13 in 10.0 mi West 8.1 mph - N/A   Clear
11:35 PM 33.8 °F 27.0 °F 21.2 °F 60% 30.13 in 10.0 mi West 8.1 mph - N/A   Clear
11:55 PM 33.8 °F 25.8 °F 23.0 °F 65% 30.14 in 10.0 mi West 10.4 mph - N/A   Clear